Regional Weather Roundup
Issued by NWS

Home | Current Version | Previous Version | Text Only | Print | Product List | Glossary On
Versions: 1 2 3 4 5 6 7 8 9 10 11 12 13 14 15 16 17 18 19 20 21 22 23 24 25 26 27 28 29 30 31 32 33 34 35 36 37 38 39 40 41 42 43 44 45 46 47 48 49 50
000
ASUS42 KFFC 230610
RWRGA
WEATHER ROUNDUP FOR GEORGIA
NATIONAL WEATHER SERVICE PEACHTREE CITY GA
200 AM EDT MON APR 23 2018

NOTE: "FAIR" INDICATES FEW OR NO CLOUDS BELOW 12,000 FEET WITH NO
SIGNIFICANT WEATHER AND/OR OBSTRUCTIONS TO VISIBILITY.

* = USE WITH CAUTION. THE STATIONS MARKED WITH AN ASTERISK MAY NOT
REPORT WEATHER SUCH AS PRECIPITATION, FOG, OR THUNDER AND ARE NOT
QUALITY CONTROLLED BY NWS.

THE REMARK "TC" DENOTES TEMPERATURE READING IN DEGREES CELSIUS.

GAZ001>058-230700-
NORTH GEORGIA

CITY           SKY/WX    TMP DP  RH WIND       PRES   REMARKS
ATLANTA        RAIN      58  58 100 E16G26    29.99F FOG
6HR MIN TEMP:  59; 6HR MAX TEMP:  60; 6HR PCP:  0.51;

ATHENS         LGT RAIN  57  56  96 E9G17     30.07F
6HR MIN TEMP:  57; 6HR MAX TEMP:  58; 6HR PCP:  0.10;

CHAMBLEE       HVY RAIN  57  55  93 E9G17     29.99F FOG
6HR MIN TEMP:  57; 6HR MAX TEMP:  58; 6HR PCP:  0.47;

PEACHTREE CITY LGT RAIN  60  58  92 SE13G23   29.98S FOG
6HR MIN TEMP:  60; 6HR MAX TEMP:  61; 6HR PCP:  0.61;

ROME           LGT RAIN  60  59  96 SE8       29.96S FOG
6HR MIN TEMP:  60; 6HR MAX TEMP:  61; 6HR PCP:  0.46;

WEST ATLANTA   HVY RAIN  59  58  96 E15G23    29.98F FOG
6HR MIN TEMP:  59; 6HR MAX TEMP:  60; 6HR PCP:  0.55;

GAINESVILLE    LGT RAIN  55  55 100 E14G29    30.07F
6HR MIN TEMP:  55; 6HR MAX TEMP:  56; 6HR PCP:  0.22;

CARTERSVILLE   RAIN      58  58 100 E10G18    29.98F FOG
6HR MIN TEMP:  58; 6HR MAX TEMP:  59; 6HR PCP:  0.57;



CITY           SKY/WX    TMP DP  RH WIND       PRES   REMARKS
DALTON*        RAIN      57  55  94 SE15      29.99R
LAWRENCEVILLE* LGT RAIN  57  55  93 E17G25    30.04S
MARIETTA       RAIN     N/A N/A N/A E18G25    29.99F
KENNESAW*      RAIN      57  55  94 E15G26    30.00F FOG
CANTON*        HVY RAIN  59  55  88 E12G18    30.03S
BLAIRSVILLE*   RAIN      54  51  89 SE16G28   30.09R FOG
$$

GAZ059>098-102>109-230700-
CENTRAL GEORGIA

CITY           SKY/WX    TMP DP  RH WIND       PRES   REMARKS
AUGUSTA-BUSH   LGT RAIN  60  56  86 E9        30.14R
6HR MIN TEMP:  60; 6HR MAX TEMP:  63; 6HR PCP:  0.06;

AUGUSTA-DANIEL LGT RAIN  62  56  80 E10G21    30.14S
6HR MIN TEMP:  61; 6HR MAX TEMP:  64; 6HR PCP:  0.11;

COLUMBUS       LGT RAIN  64  62  93 SE13      29.93S
6HR MIN TEMP:  64; 6HR MAX TEMP:  64; 6HR PCP:  0.73;

MACON          LGT RAIN  62  60  93 SE15G28   29.99F
6HR MIN TEMP:  61; 6HR MAX TEMP:  63; 6HR PCP:  0.24;

ROBINS AFB     DRIZZLE   63  61  94 SE16G22   29.98F


CITY           SKY/WX    TMP DP  RH WIND       PRES   REMARKS
LAGRANGE*      RAIN      63  62  98 SE10      29.95F
SYLVANIA*      RAIN      63  61  94 E3        30.13F
MILLEDGEVILLE* LGT RAIN  61  59  94 SE13G21   30.04F
$$

GAZ099>101-110>166-230700-
SOUTH GEORGIA

CITY           SKY/WX    TMP DP  RH WIND       PRES   REMARKS
SAVANNAH       LGT RAIN  65  62  90 SE8       30.13F
6HR MIN TEMP:  65; 6HR MAX TEMP:  67; 6HR PCP:  0.02;

VALDOSTA       HVY RAIN  67  66  97 SW8       30.01S FOG
6HR MIN TEMP:  66; 6HR MAX TEMP:  70; 6HR PCP:  1.67;

ALMA           LGT RAIN  66  63  90 E12G20    30.04F
6HR MIN TEMP:  66; 6HR MAX TEMP:  69; 6HR PCP: TRACE;

ST SIMONS      CLOUDY    67  65  93 E20G26    30.08F
6HR MIN TEMP:  66; 6HR MAX TEMP:  68; 6HR PCP:  0.13;

FT STEWART     LGT RAIN  64  62  92 E13       30.09F
ALBANY         LGT RAIN  67  65  93 SE12      29.97F
HUNTER AFB     FAIR      65  61  86 E12       30.09F
MOODY AFB      LGT RAIN  67  67 100 SE8       30.00S
BRUNSWICK      CLOUDY    66  63  88 E20       30.08F


CITY           SKY/WX    TMP DP  RH WIND       PRES   REMARKS
BAINBRIDGE*      N/A     70  70 100 S12       29.95F
MOULTRIE*      HVY RAIN  66  64  94 SE8       29.99F
VIDALIA*       CLOUDY    64  63  94 SE8       30.08F
WAYCROSS*      RAIN      67  64  90 E13       30.04F
DOUGLAS*       LGT RAIN  64  63  94 SE10G18   30.04F
$$




USA.gov is the U.S. government's official web portal to all federal, state and local government web resources and services.